Weather History for Fryeburg, ME

Change the Weather History Date:

Sunday, December 23, 2012

  Actual Average Record
Temperature  
Mean Temperature 28 °F -  
Max Temperature 35 °F 31 °F 55 °F (2004)
Min Temperature 21 °F 10 °F -11 °F (2008)
Degree Days  
Heating Degree Days 37    
Moisture  
Dew Point 13 °F    
Average Humidity 54    
Maximum Humidity 72    
Minimum Humidity 40    
Precipitation  
Precipitation 0.00 in - - ()
Sea Level Pressure  
Sea Level Pressure 29.71 in    
Wind  
Wind Speed 9 mph (West)    
Max Wind Speed 17 mph    
Max Gust Speed 37 mph    
Visibility 10 miles    
Events      
Averages and records for this station are not official NWS values.
T = Trace of Precipitation, MM = Missing Value Source: NWS Daily Summary

Daily Weather History Graph

Daily Weather History Graph

Search for Another Location

Airport:

Trip Planner

Search our weather history database for the weather conditions in past years. The results will help you decide how hot, cold, wet, or windy it might be!

Date:

Astronomy

Dec. 23, 2012 Rise Set
Actual Time 7:16 AM EST 4:09 PM EST
Civil Twilight 6:43 AM EST 4:43 PM EST
Nautical Twilight 6:06 AM EST 5:19 PM EST
Astronomical Twilight 5:31 AM EST 5:54 PM EST
Moon 1:02 PM EST (12/23) 2:51 AM EST (12/23)
Length of Visible Light 9h 59m
Length of Day
8h 53m
Waxing Gibbous, 81% of the Moon is Illuminated
Dec 23
Waxing Gibbous
Dec 28
Full
Jan 4
Last Quarter
Jan 11
New
Jan 18
First Quarter

Hourly Weather History & Observations

Time (EST) Temp. Windchill Dew Point Humidity Pressure Visibility Wind Dir Wind Speed Gust Speed Precip Events Conditions
12:54 AM 23.0 °F 17.0 °F 8.1 °F 53% 29.57 in 10.0 mi Variable 4.6 mph - N/A   Partly Cloudy
1:54 AM 24.1 °F 11.5 °F 9.0 °F 53% 29.60 in 10.0 mi West 15.0 mph 32.2 mph N/A   Partly Cloudy
2:54 AM 23.0 °F 9.2 °F 9.0 °F 55% 29.62 in 10.0 mi WNW 17.3 mph 36.8 mph N/A   Clear
3:54 AM 21.9 °F 9.8 °F 9.0 °F 58% 29.64 in 10.0 mi WNW 12.7 mph 23.0 mph N/A   Partly Cloudy
4:54 AM 21.9 °F 9.2 °F 10.0 °F 60% 29.66 in 10.0 mi West 13.8 mph 21.9 mph N/A   Overcast
5:54 AM 21.9 °F 12.5 °F 9.0 °F 58% 29.68 in 10.0 mi West 8.1 mph 16.1 mph N/A   Clear
6:54 AM 21.9 °F 8.7 °F 8.1 °F 55% 29.70 in 10.0 mi West 15.0 mph 25.3 mph N/A   Clear
7:54 AM 21.9 °F 9.2 °F 7.0 °F 53% 29.70 in 10.0 mi West 13.8 mph 28.8 mph N/A   Clear
8:54 AM 25.0 °F 15.5 °F 7.0 °F 46% 29.73 in 10.0 mi West 9.2 mph 25.3 mph N/A   Clear
9:54 AM 28.0 °F 22.8 °F 9.0 °F 45% 29.73 in 10.0 mi Variable 4.6 mph - N/A   Clear
10:54 AM 30.0 °F 25.2 °F 10.0 °F 43% 29.71 in 10.0 mi Variable 4.6 mph - N/A   Clear
11:54 AM 33.1 °F 30.0 °F 12.0 °F 42% 29.70 in 10.0 mi Variable 3.5 mph - 0.00 in   Mostly Cloudy
12:54 PM 35.1 °F 28.6 °F 12.9 °F 40% 29.69 in 10.0 mi NW 8.1 mph - N/A   Overcast
1:54 PM 34.0 °F 27.2 °F 14.0 °F 44% 29.70 in 10.0 mi WNW 8.1 mph - N/A   Mostly Cloudy
2:54 PM 33.1 °F 28.7 °F 14.0 °F 46% 29.72 in 10.0 mi NW 4.6 mph - N/A   Mostly Cloudy
3:54 PM 32.0 °F 24.8 °F 15.1 °F 50% 29.73 in 10.0 mi West 8.1 mph - N/A   Overcast
4:54 PM 30.9 °F 26.2 °F 15.1 °F 52% 29.75 in 10.0 mi WSW 4.6 mph - N/A   Overcast
5:54 PM 30.0 °F 26.5 °F 16.0 °F 56% 29.76 in 10.0 mi SW 3.5 mph - N/A   Overcast
6:54 PM 28.9 °F - 16.0 °F 58% 29.76 in 10.0 mi Calm Calm - N/A   Overcast
7:54 PM 28.9 °F 23.9 °F 17.1 °F 61% 29.76 in 10.0 mi SSE 4.6 mph - N/A   Overcast
8:54 PM 28.9 °F 23.9 °F 21.0 °F 72% 29.75 in 10.0 mi South 4.6 mph - N/A   Clear
9:54 PM 30.0 °F 25.2 °F 21.0 °F 69% 29.75 in 10.0 mi Variable 4.6 mph - N/A   Partly Cloudy
10:54 PM 32.0 °F 24.2 °F 21.9 °F 66% 29.76 in 10.0 mi SSW 9.2 mph - N/A   Overcast
11:54 PM 32.0 °F 27.5 °F 21.9 °F 66% 29.76 in 10.0 mi West 4.6 mph - 0.00 in   Overcast